[[{"header":{"parameterUnit":"m.s-1","parameterCategory":2,"la1":30.2991,"la2":30.254,"lo1":-89.0895,"lo2":-89.0444,"dy":0.0017,"dx":0.0017,"nx":28,"ny":28,"refTime":"2025-11-25T03:00:00:Z","depth":"0","parameterNumber":2,"parameterNumberName":"U-component_of_CURRENTS"},"data":[0,0,0,0,0,0,0,0,0,0,0,0,0,0,0,0,0,0,0,0,0,0,0,0,0,0,0,0,0,0,0,0,0,0,0,0,0,0,0,0,0,0,0,0,0,0,0,0,0,0,0,0,0,0,0,0,0,0,0.2885,0.2885,0,0.2906,0.2906,0.2906,0.2892,0.2891,0.2891,0.289,0.2889,0.289,0.289,0,0,0,0,0,0,0,0,0,0,0,0,0,0.2849,0.285,0.2884,0.2885,0.2885,0.2906,0.2906,0.2906,0.2892,0.2891,0.2891,0.289,0.2889,0.289,0.289,0,0,0,0,0,0,0,0,0,0,0,0,0,0.2865,0.285,0.2884,0.2883,0.2883,0.2906,0.2906,0.2906,0.2892,0.2891,0.289,0.289,0.2889,0.289,0.289,0.2906,0,0,0.2892,0.2892,0,0,0,0,0,0,0,0,0.2864,0.2865,0.2882,0.2883,0.2883,0.2898,0.2893,0.2906,0.2892,0.2886,0.289,0.289,0.2892,0.2892,0.2895,0.2906,0.2906,0.2892,0.2892,0.2892,0.2893,0,0,0,0,0,0,0,0.2863,0.2865,0.289,0.2883,0.2884,0.2887,0.2888,0.2895,0.289,0.2886,0.2886,0.2892,0.2892,0.2894,0.2894,0.2906,0.2892,0.2892,0.2893,0.2893,0.2959,0.296,0,0,0,0,0,0,0.2865,0.2864,0.289,0.2891,0.2874,0.2888,0.2889,0.2892,0.289,0.289,0.2893,0.2892,0.2893,0.2894,0.2894,0.2934,0.2892,0.2893,0.2893,0.2957,0.2959,0.296,0,0,0,0,0,0,0.2864,0.2867,0.2889,0.288,0.2883,0.289,0.2892,0.2892,0.2898,0.2896,0.2895,0.2899,0.2893,0.2893,0.2911,0.2933,0.2893,0.2894,0.2955,0.2958,0.296,0.3001,0,0,0,0,0,0,0.2863,0.2866,0.2869,0.288,0.2884,0.2905,0.2893,0.2893,0.2904,0.2902,0.2901,0.29,0.2892,0.291,0.2911,0.2933,0.2894,0.2954,0.2956,0.2959,0.2998,0.3004,0.3009,0,0,0,0,0,0.2861,0.2867,0.2869,0.2872,0.2887,0.2906,0.2908,0.2909,0.2905,0.291,0.2914,0.29,0.2928,0.2912,0.2913,0.2935,0.2952,0.2956,0.2959,0.2995,0.3003,0.3009,0,0,0,0,0,0,0.285,0.2867,0.2868,0.2878,0.2893,0.2905,0.2912,0.2915,0.2923,0.2922,0.2916,0.2916,0.2943,0.2936,0.2918,0.2964,0.2939,0.2943,0.2966,0.2974,0.2979,0.2984,0.2895,0,0,0,0,0,0.2851,0.286,0.2877,0.2886,0.2894,0.2905,0.2913,0.2917,0.2927,0.2929,0.2931,0.2938,0.2958,0.2961,0.2973,0.2994,0.301,0.3011,0.3017,0.3022,0.3029,0.3084,0.3095,0.2971,0.2971,0.2971,0,0,0.285,0.2861,0.2865,0.2885,0.2894,0.2914,0.2907,0.2924,0.2942,0.2929,0.295,0.296,0.297,0.2997,0.3008,0.2992,0.3067,0.3026,0.303,0.3034,0.3088,0.3101,0.3111,0.2973,0.2973,0.2972,0,0,0.2853,0.2861,0.2871,0.2888,0.291,0.2922,0.293,0.2948,0.2955,0.2982,0.2984,0.3009,0.3025,0.3041,0.3051,0.3098,0.31,0.3101,0.313,0.3184,0.3194,0.3204,0.324,0.3252,0.3099,0.31,0.31,0,0.2852,0.2865,0.2877,0.2895,0.2913,0.2928,0.2948,0.2965,0.2986,0.3009,0.2993,0.3052,0.305,0.3103,0.3113,0.3112,0.3138,0.3099,0.3192,0.3202,0.3211,0.3245,0.3258,0.3102,0.3102,0.3101,0.3101,0,0.2863,0.2879,0.2888,0.2916,0.2938,0.2958,0.2987,0.3011,0.3026,0.305,0.3104,0.311,0.3148,0.3151,0.3142,0.3209,0.3205,0.3196,0.3172,0.3226,0.3258,0.3272,0.3105,0.3104,0.3104,0.3103,0,0,0.2844,0.2887,0.289,0.2906,0.2952,0.2967,0.3014,0.3063,0.3105,0.3128,0.3186,0.3211,0.3226,0.3238,0.3238,0.327,0.3346,0.3257,0.3259,0.329,0.3462,0.3426,0.3436,0.3357,0.336,0.3362,0.3458,0,0.2849,0.2879,0.2906,0.2941,0.296,0.3002,0.3045,0.3096,0.3143,0.3204,0.3236,0.3285,0.3257,0.3279,0.3313,0.3348,0.3382,0.332,0.3407,0.341,0.337,0.3451,0.3346,0.3421,0.3471,0.3473,0.3475,0,0.2846,0.2871,0.2902,0.2957,0.297,0.2996,0.3078,0.3123,0.3222,0.3266,0.3335,0.3362,0.3427,0.3384,0.3479,0.3444,0.3456,0.3468,0.3473,0.3434,0.3399,0.3376,0.3443,0.3376,0.3495,0.3493,0.3492,0,0.2816,0.2865,0.2887,0.2905,0.2973,0.3,0.3044,0.3141,0.3202,0.3312,0.3372,0.3454,0.3505,0.3544,0.357,0.3536,0.3668,0.3627,0.3605,0.3602,0.3526,0.3512,0.3535,0.369,0.3689,0.3689,0.3689,0,0.2806,0.2822,0.2871,0.2883,0.2925,0.298,0.3053,0.3117,0.3236,0.3328,0.3397,0.3484,0.3548,0.3623,0.3624,0.3672,0.3721,0.3633,0.3637,0.3537,0.3523,0.3471,0.3436,0.3693,0.3692,0.3691,0.3691,0,0.2769,0.2799,0.2829,0.289,0.2908,0.294,0.305,0.3121,0.3226,0.3351,0.3388,0.3539,0.3643,0.3689,0.3774,0.3747,0.3691,0.3777,0.3646,0.3633,0.3521,0.3492,0.3374,0.3285,0.3772,0.3772,0.3772,0,0.2752,0.2762,0.2819,0.2847,0.2872,0.2934,0.2993,0.3105,0.3189,0.3384,0.3444,0.3587,0.3671,0.3791,0.379,0.3806,0.3696,0.3708,0.3614,0.3524,0.3496,0.3331,0.3252,0.3532,0.353,0.3528,0.3527,0,0.2738,0.2756,0.2793,0.2835,0.2882,0.293,0.3013,0.3067,0.3218,0.3308,0.3439,0.3517,0.3666,0.367,0.3718,0.3705,0.3547,0.3673,0.3623,0.3355,0.3133,0.3046,0.3451,0.3512,0.3514,0.3515,0.3516,0.3516,0.2741,0.2758,0.2805,0.2831,0.2874,0.2892,0.2893,0.2992,0.3069,0.316,0.3337,0.3392,0.3541,0.3596,0.3569,0.3488,0.3435,0.3392,0.3381,0.3232,0.3089,0.3456,0.349,0.3492,0.3493,0.3494,0.3495,0,0.2751,0.2769,0.28,0.2808,0.2796,0.2835,0.2881,0.2857,0.2871,0.3016,0.3086,0.3204,0.325,0.3331,0.3343,0.3225,0.3049,0.3147,0.2904,0.2854,0.3239,0.3174,0.3087,0.3087,0.3087,0.3087,0.3087,0.3088,0.2769,0.2786,0.2775,0.2717,0.2703,0.2635,0.2619,0.2599,0.2649,0.2669,0.2717,0.2826,0.3067,0.3205,0.3123,0.3034,0.2818,0.2687,0.2676,0.2983,0.3004,0.3024,0.2955,0.2824,0.2824,0.2165,0.2161,0.2157]},{"header":{"parameterUnit":"m.s-1","parameterCategory":2,"la1":30.2991,"la2":30.254,"lo1":-89.0895,"lo2":-89.0444,"dy":0.0017,"dx":0.0017,"nx":28,"ny":28,"refTime":"2025-11-25T03:00:00:Z","depth":"0","parameterNumber":3,"parameterNumberName":"V-component_of_CURRENTS"},"data":[0,0,0,0,0,0,0,0,0,0,0,0,0,0,0,0,0,0,0,0,0,0,0,0,0,0,0,0,0,0,0,0,0,0,0,0,0,0,0,0,0,0,0,0,0,0,0,0,0,0,0,0,0,0,0,0,0,0,0.0354,0.0354,0,0.0317,0.0317,0.0316,0.0285,0.0284,0.0284,0.0284,0.0221,0.0219,0.0218,0,0,0,0,0,0,0,0,0,0,0,0,0,0.0342,0.0343,0.0354,0.0354,0.0353,0.0317,0.0317,0.0316,0.0285,0.0284,0.0284,0.0284,0.0221,0.022,0.0218,0,0,0,0,0,0,0,0,0,0,0,0,0,0.0329,0.0343,0.0354,0.0334,0.0332,0.0317,0.0317,0.0316,0.0285,0.0284,0.0284,0.0284,0.0222,0.022,0.0218,0.0211,0,0,0.0211,0.021,0,0,0,0,0,0,0,0,0.033,0.033,0.0338,0.0336,0.0333,0.0306,0.0289,0.028,0.0285,0.0301,0.0284,0.0284,0.0248,0.0244,0.0236,0.0208,0.0205,0.0211,0.0209,0.0208,0.0208,0,0,0,0,0,0,0,0.0331,0.0331,0.0338,0.0337,0.0335,0.0308,0.0307,0.0287,0.0276,0.03,0.0298,0.0296,0.0247,0.0238,0.0234,0.0204,0.0211,0.0209,0.0207,0.0207,0.017,0.0171,0,0,0,0,0,0,0.0342,0.0332,0.0339,0.0337,0.0332,0.0309,0.0307,0.0314,0.0276,0.0271,0.0296,0.0295,0.0242,0.0237,0.0232,0.0239,0.0208,0.0206,0.0205,0.017,0.017,0.0171,0,0,0,0,0,0,0.0342,0.0343,0.0341,0.0334,0.0332,0.031,0.0318,0.0314,0.0309,0.0274,0.0268,0.0297,0.0242,0.0235,0.0222,0.0236,0.0205,0.0203,0.0169,0.017,0.017,0.0242,0,0,0,0,0,0,0.0342,0.0344,0.035,0.0335,0.0333,0.0343,0.0319,0.0313,0.0309,0.0306,0.0272,0.0266,0.0241,0.0225,0.0219,0.0232,0.0202,0.0169,0.017,0.017,0.0239,0.0245,0.0249,0,0,0,0,0,0.0342,0.0359,0.0351,0.0352,0.0344,0.0344,0.0341,0.0322,0.0309,0.0315,0.029,0.0267,0.0225,0.0224,0.0217,0.0229,0.0169,0.017,0.017,0.0237,0.0244,0.0249,0,0,0,0,0,0,0.0356,0.0357,0.0348,0.0364,0.0358,0.0339,0.0341,0.0328,0.0312,0.0307,0.0273,0.0265,0.0257,0.0233,0.0232,0.0219,0.0193,0.0192,0.0245,0.0252,0.0257,0.0274,0.02,0,0,0,0,0,0.0363,0.0376,0.0369,0.038,0.0379,0.036,0.0356,0.0346,0.033,0.0323,0.03,0.0273,0.0255,0.0246,0.0223,0.0219,0.0189,0.0221,0.0226,0.0231,0.024,0.0206,0.021,0.0173,0.0173,0.0173,0,0,0.037,0.0372,0.0378,0.0383,0.0374,0.0388,0.0357,0.0358,0.0369,0.0318,0.0322,0.0291,0.0257,0.0251,0.0246,0.0234,0.0225,0.0232,0.0236,0.0243,0.0208,0.0211,0.0214,0.0174,0.0174,0.0174,0,0,0.0396,0.0394,0.0415,0.0418,0.0415,0.0407,0.0412,0.0399,0.0392,0.0389,0.0356,0.0335,0.0308,0.0288,0.0273,0.0294,0.0253,0.0285,0.0329,0.0297,0.03,0.0302,0.027,0.0269,0.029,0.029,0.029,0,0.0403,0.0434,0.042,0.0443,0.0452,0.0423,0.0449,0.044,0.0424,0.0426,0.04,0.0361,0.0326,0.0325,0.0328,0.0307,0.0281,0.0311,0.0305,0.0307,0.0308,0.0274,0.0271,0.0294,0.0293,0.0293,0.0292,0,0.0449,0.0472,0.0485,0.0508,0.0514,0.0532,0.0523,0.0524,0.0507,0.0497,0.0487,0.0434,0.0415,0.0396,0.0366,0.0363,0.0339,0.0315,0.0293,0.0316,0.0278,0.0275,0.0299,0.0297,0.0296,0.0295,0,0,0.0471,0.0511,0.0516,0.0546,0.0553,0.057,0.0585,0.0598,0.0627,0.0583,0.0606,0.0549,0.0517,0.0498,0.0454,0.042,0.0396,0.0376,0.0373,0.0351,0.0325,0.0319,0.0314,0.0371,0.0371,0.0371,0.0297,0,0.0511,0.0579,0.058,0.0641,0.0679,0.0663,0.069,0.0694,0.0688,0.0703,0.0636,0.0636,0.0559,0.0552,0.0505,0.0434,0.0389,0.0418,0.03,0.0297,0.0294,0.0311,0.0333,0.027,0.0293,0.0292,0.0291,0,0.0557,0.0602,0.0671,0.0732,0.0746,0.0771,0.0818,0.0843,0.0845,0.0841,0.0813,0.0761,0.0708,0.0635,0.0512,0.0536,0.0435,0.0364,0.0359,0.0328,0.0284,0.0249,0.0262,0.0139,0.0285,0.0286,0.0286,0,0.0597,0.0665,0.0728,0.0748,0.0806,0.0831,0.0861,0.0884,0.0936,0.0932,0.0955,0.0874,0.0853,0.0712,0.0554,0.0533,0.0418,0.0369,0.0263,0.026,0.0244,0.0242,0.0132,0.0269,0.0269,0.027,0.027,0,0.0648,0.0699,0.0756,0.0795,0.0883,0.0896,0.099,0.1004,0.1056,0.1142,0.1033,0.1067,0.0871,0.0775,0.0601,0.0436,0.0448,0.0277,0.0245,0.0269,0.027,0.0133,0.0051,0.0267,0.0267,0.0268,0.0268,0,0.0686,0.0718,0.0804,0.0878,0.0906,0.0974,0.1086,0.117,0.1187,0.1292,0.1292,0.1227,0.11,0.0888,0.0683,0.0524,0.0266,0.0276,0.032,0.0294,0.0077,-0.0002,-0.0171,-0.0237,0.0146,0.0146,0.0146,0,0.0714,0.0763,0.0869,0.0938,0.0974,0.108,0.1171,0.1234,0.1337,0.1401,0.1464,0.1363,0.1321,0.1008,0.0708,0.041,0.0252,0.0237,0.0191,0.0077,-0.0035,-0.0103,-0.0151,0.019,0.019,0.019,0.019,0,0.0782,0.0813,0.0893,0.1026,0.1129,0.1258,0.1385,0.1484,0.1581,0.1651,0.1725,0.1685,0.1392,0.1121,0.0718,0.0495,0.0154,0.0227,0.0095,-0.0016,-0.0084,-0.0165,0.0224,0.019,0.019,0.019,0.019,0.019,0.0837,0.0905,0.1008,0.1132,0.1257,0.1413,0.1526,0.1672,0.1827,0.1951,0.192,0.1903,0.1525,0.0975,0.0658,0.0152,0.0126,0.0007,-0.0081,-0.014,-0.0195,0.0198,0.0138,0.0138,0.0138,0.0138,0.0138,0,0.0915,0.0992,0.1113,0.1261,0.1397,0.1448,0.166,0.1784,0.1963,0.2092,0.2141,0.1975,0.1481,0.0974,0.0295,-0.0062,-0.0221,-0.026,-0.0352,-0.0391,-0.0047,-0.0033,-0.0115,-0.0115,-0.0115,-0.0114,-0.0114,-0.0114,0.0965,0.1086,0.1139,0.1348,0.1452,0.1637,0.1755,0.1938,0.2078,0.2234,0.2265,0.2265,0.1934,0.0671,-0.0136,-0.0333,-0.0579,-0.0648,-0.0771,-0.0532,-0.0513,-0.0496,-0.0501,-0.0679,-0.068,-0.1062,-0.1066,-0.1069]}],[{"header":{"parameterUnit":"m.s-1","parameterCategory":2,"la1":30.2991,"la2":30.254,"lo1":-89.0895,"lo2":-89.0444,"dy":0.0017,"dx":0.0017,"nx":28,"ny":28,"refTime":"2025-11-25T03:00:00:Z","depth":"2","parameterNumber":2,"parameterNumberName":"U-component_of_CURRENTS"},"data":[0,0,0,0,0,0,0,0,0,0,0,0,0,0,0,0,0,0,0,0,0,0,0,0,0,0,0,0,0,0,0,0,0,0,0,0,0,0,0,0,0,0,0,0,0,0,0,0,0,0,0,0,0,0,0,0,0,0,0.27,0.27,0,0.2725,0.2725,0.2725,0.2723,0.2723,0.2723,0.2723,0.2734,0.2735,0.2735,0,0,0,0,0,0,0,0,0,0,0,0,0,0.2662,0.2662,0.27,0.27,0.2701,0.2725,0.2725,0.2725,0.2723,0.2723,0.2723,0.2723,0.2734,0.2734,0.2735,0,0,0,0,0,0,0,0,0,0,0,0,0,0.2679,0.2662,0.27,0.2705,0.2706,0.2725,0.2725,0.2725,0.2723,0.2723,0.2723,0.2723,0.2734,0.2734,0.2735,0.2743,0,0,0.2737,0.2737,0,0,0,0,0,0,0,0,0.2678,0.268,0.2704,0.2705,0.2706,0.2723,0.2716,0.2731,0.2723,0.2714,0.2723,0.2723,0.2731,0.2732,0.2733,0.2744,0.2744,0.2737,0.2737,0.2738,0.2738,0,0,0,0,0,0,0,0.2677,0.2679,0.2707,0.2704,0.2706,0.271,0.2712,0.2719,0.2721,0.2715,0.2715,0.2722,0.2731,0.2733,0.2734,0.2744,0.2737,0.2738,0.2738,0.2738,0.2806,0.2807,0,0,0,0,0,0,0.2679,0.2678,0.2706,0.2708,0.2694,0.2711,0.2713,0.2715,0.2721,0.2723,0.2722,0.2722,0.2732,0.2733,0.2734,0.278,0.2738,0.2738,0.2739,0.2805,0.2806,0.2808,0,0,0,0,0,0,0.2678,0.2681,0.2705,0.2696,0.27,0.2712,0.2715,0.2716,0.2727,0.2728,0.2728,0.2734,0.2732,0.2733,0.2755,0.2779,0.2739,0.2739,0.2803,0.2805,0.2807,0.2849,0,0,0,0,0,0,0.2676,0.268,0.2685,0.2696,0.27,0.2723,0.2715,0.2717,0.2733,0.2733,0.2737,0.2738,0.2732,0.2754,0.2755,0.2779,0.274,0.2801,0.2804,0.2807,0.2846,0.2853,0.2858,0,0,0,0,0,0.2675,0.2681,0.2685,0.2689,0.2706,0.2724,0.2727,0.2733,0.2733,0.2741,0.275,0.2738,0.2772,0.2756,0.2757,0.2782,0.28,0.2803,0.2806,0.2843,0.2851,0.2858,0,0,0,0,0,0,0.2665,0.2682,0.2687,0.2697,0.2714,0.2725,0.2734,0.2741,0.2753,0.2756,0.2753,0.2754,0.2785,0.2779,0.2761,0.2811,0.2786,0.2789,0.2813,0.2821,0.2827,0.2831,0.274,0,0,0,0,0,0.2667,0.2677,0.2694,0.2704,0.2713,0.2727,0.2736,0.2744,0.2757,0.2762,0.2767,0.2779,0.2799,0.2805,0.2818,0.2841,0.2853,0.286,0.2866,0.2871,0.2877,0.2927,0.2938,0.2818,0.2818,0.2818,0,0,0.2666,0.2678,0.2683,0.2704,0.2715,0.2734,0.2731,0.2752,0.2771,0.2762,0.2788,0.2801,0.2811,0.2841,0.2854,0.2838,0.2912,0.2875,0.2879,0.2882,0.2932,0.2943,0.2954,0.2821,0.282,0.282,0,0,0.267,0.2681,0.2691,0.2708,0.2734,0.2746,0.2756,0.2776,0.2788,0.2818,0.2822,0.2851,0.287,0.2886,0.2896,0.2944,0.2945,0.2949,0.2979,0.3029,0.3039,0.3048,0.3079,0.309,0.2949,0.2949,0.2949,0,0.267,0.2683,0.2698,0.2715,0.2733,0.2753,0.2773,0.2791,0.2818,0.2842,0.2832,0.2894,0.2894,0.2945,0.2958,0.2958,0.2981,0.2949,0.3037,0.3046,0.3054,0.3084,0.3096,0.2951,0.2951,0.2951,0.2951,0,0.2679,0.2697,0.2706,0.2735,0.2758,0.2779,0.2809,0.2837,0.2857,0.2883,0.294,0.295,0.2991,0.2996,0.2988,0.3054,0.305,0.3041,0.3016,0.3069,0.3097,0.3109,0.2955,0.2954,0.2953,0.2953,0,0,0.2662,0.2704,0.2708,0.2724,0.2772,0.2787,0.2834,0.2884,0.2926,0.2956,0.3014,0.3045,0.3065,0.3078,0.3081,0.3112,0.3184,0.3102,0.3103,0.3129,0.329,0.3244,0.3252,0.3196,0.3198,0.32,0.3285,0,0.2665,0.2694,0.2721,0.2756,0.2775,0.2819,0.2862,0.2914,0.2964,0.3025,0.3061,0.3114,0.3093,0.312,0.3153,0.3186,0.3218,0.3162,0.3238,0.324,0.319,0.3266,0.3004,0.3054,0.3296,0.3298,0.3299,0,0.2661,0.2684,0.2716,0.277,0.2783,0.2813,0.2895,0.294,0.3038,0.3083,0.3154,0.3186,0.3252,0.3218,0.3306,0.3276,0.3288,0.3299,0.3302,0.3253,0.3217,0.3041,0.3066,0.3319,0.3318,0.3316,0.3315,0,0.263,0.2678,0.2702,0.272,0.2787,0.2818,0.2864,0.296,0.3017,0.3131,0.3189,0.3272,0.3325,0.3363,0.3391,0.3362,0.3479,0.3442,0.341,0.3406,0.3193,0.3167,0.3501,0.3501,0.35,0.35,0.35,0,0.2618,0.2635,0.2688,0.27,0.2743,0.2802,0.2875,0.2939,0.3053,0.3137,0.3216,0.3295,0.3367,0.3436,0.3438,0.3475,0.3526,0.3435,0.3436,0.3201,0.3175,0.3408,0.3396,0.3503,0.3503,0.3502,0.3501,0,0.2579,0.2612,0.2641,0.2706,0.2727,0.2762,0.287,0.2933,0.3043,0.3157,0.3196,0.3342,0.3441,0.3491,0.357,0.354,0.3569,0.3559,0.3274,0.324,0.3446,0.3436,0.3539,0.3539,0.3538,0.3538,0.3537,0,0.256,0.2571,0.263,0.2659,0.2689,0.2753,0.2807,0.2918,0.2987,0.318,0.3226,0.3372,0.3447,0.3554,0.3536,0.3546,0.3589,0.3302,0.3195,0.3466,0.3456,0.3447,0.3437,0.2925,0.292,0.2915,0.2912,0,0.2536,0.2558,0.259,0.2634,0.2681,0.2728,0.2805,0.2848,0.2992,0.3074,0.3195,0.3272,0.3401,0.3315,0.3352,0.3314,0.328,0.3215,0.3588,0.2963,0.2896,0.2884,0.2893,0.2873,0.2877,0.288,0.2882,0.2883,0.2527,0.2533,0.2575,0.2608,0.2656,0.2676,0.2672,0.2756,0.2816,0.2895,0.3062,0.3076,0.3139,0.3063,0.2974,0.2899,0.3122,0.2965,0.2975,0.299,0.2911,0.2847,0.2799,0.2803,0.2806,0.2808,0.281,0,0.2502,0.2518,0.255,0.2561,0.2556,0.2612,0.2647,0.2608,0.2605,0.272,0.2778,0.2598,0.2564,0.2603,0.244,0.2449,0.2373,0.2337,0.2212,0.2256,0.2294,0.2174,0.1869,0.1866,0.1862,0.1859,0,0,0.2497,0.2497,0.2491,0.2449,0.2454,0.24,0.2384,0.2333,0.2351,0.2308,0.2289,0.2487,0.2568,0.2198,0.2156,0.1983,0.209,0.1899,0.2667,0.2568,0.2601,0.2688,0.2559,0,0,0,0,0]},{"header":{"parameterUnit":"m.s-1","parameterCategory":2,"la1":30.2991,"la2":30.254,"lo1":-89.0895,"lo2":-89.0444,"dy":0.0017,"dx":0.0017,"nx":28,"ny":28,"refTime":"2025-11-25T03:00:00:Z","depth":"2","parameterNumber":3,"parameterNumberName":"V-component_of_CURRENTS"},"data":[0,0,0,0,0,0,0,0,0,0,0,0,0,0,0,0,0,0,0,0,0,0,0,0,0,0,0,0,0,0,0,0,0,0,0,0,0,0,0,0,0,0,0,0,0,0,0,0,0,0,0,0,0,0,0,0,0,0,0.0227,0.0227,0,0.0194,0.0193,0.0193,0.0166,0.0165,0.0165,0.0165,0.0105,0.0104,0.0102,0,0,0,0,0,0,0,0,0,0,0,0,0,0.0216,0.0216,0.0227,0.0227,0.0227,0.0194,0.0193,0.0193,0.0166,0.0165,0.0165,0.0165,0.0106,0.0104,0.0102,0,0,0,0,0,0,0,0,0,0,0,0,0,0.0204,0.0216,0.0227,0.021,0.0208,0.0194,0.0193,0.0192,0.0166,0.0165,0.0165,0.0165,0.0106,0.0104,0.0102,0.0094,0,0,0.0095,0.0094,0,0,0,0,0,0,0,0,0.0205,0.0205,0.0213,0.0211,0.0209,0.0185,0.0167,0.0158,0.0166,0.0181,0.0165,0.0165,0.013,0.0126,0.0119,0.0091,0.0088,0.0095,0.0094,0.0093,0.0092,0,0,0,0,0,0,0,0.0206,0.0205,0.0213,0.0213,0.021,0.0186,0.0185,0.0165,0.0156,0.0179,0.0178,0.0176,0.0129,0.0121,0.0117,0.0087,0.0095,0.0093,0.0092,0.0091,0.0057,0.0058,0,0,0,0,0,0,0.0216,0.0207,0.0214,0.0212,0.0208,0.0187,0.0185,0.0192,0.0156,0.0151,0.0176,0.0175,0.0125,0.012,0.0115,0.0124,0.0093,0.0091,0.009,0.0057,0.0057,0.0058,0,0,0,0,0,0,0.0216,0.0217,0.0215,0.0209,0.0207,0.0188,0.0195,0.0191,0.0188,0.0155,0.0149,0.0178,0.0125,0.0118,0.0106,0.0121,0.009,0.0088,0.0056,0.0057,0.0058,0.0129,0,0,0,0,0,0,0.0216,0.0217,0.0224,0.021,0.0208,0.0218,0.0195,0.0191,0.0188,0.0186,0.0154,0.0148,0.0124,0.011,0.0104,0.0117,0.0086,0.0056,0.0057,0.0057,0.0126,0.0132,0.0137,0,0,0,0,0,0.0215,0.0232,0.0225,0.0225,0.0219,0.0219,0.0216,0.0199,0.0188,0.0194,0.0171,0.0149,0.011,0.0109,0.0102,0.0115,0.0055,0.0056,0.0057,0.0123,0.0131,0.0136,0,0,0,0,0,0,0.0229,0.023,0.0222,0.0237,0.0232,0.0215,0.0217,0.0206,0.0192,0.0188,0.0155,0.0148,0.0141,0.0117,0.0116,0.0106,0.0079,0.0078,0.0131,0.0138,0.0143,0.0159,0.0084,0,0,0,0,0,0.0236,0.0248,0.0242,0.0252,0.0252,0.0235,0.0232,0.0223,0.0209,0.0202,0.0181,0.0157,0.0139,0.0131,0.0109,0.0106,0.0075,0.0108,0.0114,0.0119,0.0127,0.0092,0.0095,0.0061,0.0061,0.0061,0,0,0.0242,0.0245,0.0251,0.0256,0.0248,0.0262,0.0233,0.0235,0.0246,0.0198,0.0204,0.0174,0.0141,0.0138,0.0133,0.0121,0.0112,0.012,0.0124,0.013,0.0093,0.0096,0.0099,0.0061,0.0061,0.0061,0,0,0.0267,0.0266,0.0286,0.029,0.0288,0.0281,0.0286,0.0275,0.0269,0.0268,0.0237,0.0218,0.0193,0.0174,0.0161,0.0182,0.014,0.0175,0.0218,0.0184,0.0187,0.0189,0.0155,0.0153,0.018,0.018,0.018,0,0.0274,0.0303,0.029,0.0313,0.0323,0.0296,0.0322,0.0315,0.0301,0.0303,0.028,0.0244,0.0211,0.021,0.0215,0.0195,0.0169,0.0199,0.0192,0.0194,0.0194,0.0158,0.0156,0.0183,0.0183,0.0183,0.0182,0,0.0317,0.034,0.0353,0.0376,0.0382,0.04,0.0393,0.0396,0.0381,0.0373,0.0364,0.0315,0.0297,0.028,0.0253,0.025,0.0226,0.0202,0.0179,0.0202,0.0163,0.0159,0.0188,0.0187,0.0186,0.0185,0,0,0.0337,0.0377,0.0382,0.041,0.042,0.0436,0.0452,0.0466,0.0492,0.0454,0.0473,0.0425,0.0395,0.0377,0.0337,0.0304,0.0279,0.0262,0.0258,0.0234,0.0205,0.019,0.0183,0.0255,0.0255,0.0255,0.0175,0,0.0375,0.0439,0.0442,0.0501,0.0537,0.0524,0.055,0.0556,0.055,0.0561,0.05,0.05,0.0435,0.0429,0.0384,0.0313,0.0271,0.0303,0.018,0.0177,0.0166,0.0179,0.0188,0.0118,0.0171,0.017,0.0169,0,0.0418,0.046,0.0527,0.0585,0.0598,0.0624,0.0668,0.0692,0.0691,0.0686,0.0661,0.0613,0.0565,0.0501,0.0382,0.0407,0.0312,0.0243,0.0238,0.0198,0.0155,0.0102,0.0108,0.0162,0.0162,0.0163,0.0163,0,0.0454,0.0519,0.058,0.0599,0.0655,0.068,0.0709,0.073,0.0774,0.077,0.0788,0.0714,0.0692,0.0561,0.0413,0.0398,0.0275,0.0235,0.0127,0.0125,0.0095,0.0091,0.014,0.014,0.014,0.014,0.0141,0,0.05,0.0549,0.0605,0.0642,0.0724,0.0739,0.0823,0.0838,0.0881,0.0951,0.0861,0.0883,0.0706,0.061,0.0451,0.0287,0.03,0.0139,0.0106,0.012,0.0119,0.0127,0.0126,0.0137,0.0138,0.0139,0.0139,0,0.0533,0.0566,0.0645,0.0716,0.0745,0.0807,0.0908,0.0978,0.0997,0.1081,0.1083,0.102,0.0898,0.0704,0.0507,0.0358,0.0186,0.0119,0.0148,0.012,0.0045,0.0049,-0.001,-0.0011,-0.0012,-0.0012,-0.0013,0,0.0556,0.0602,0.0702,0.0765,0.0801,0.0897,0.0976,0.1034,0.1115,0.1172,0.1216,0.1127,0.108,0.0778,0.0501,0.0224,0.0185,0.0048,0.0015,0.0057,0.003,0.0036,0.0041,-0.0003,-0.0003,-0.0004,-0.0004,0,0.0609,0.064,0.0711,0.0836,0.0927,0.1042,0.1152,0.1233,0.1315,0.1374,0.1432,0.1396,0.1119,0.0849,0.0474,0.0278,0.0092,0.0031,0.0069,0.0042,0.0059,0.0035,0.004,-0.0008,-0.0008,-0.0007,-0.0007,-0.0007,0.0649,0.0704,0.0797,0.0917,0.1033,0.1172,0.1269,0.1387,0.1516,0.1618,0.1586,0.1536,0.1228,0.0748,0.0414,0.0062,0.008,-0.0055,-0.0052,-0.0049,-0.0026,-0.001,-0.0087,-0.0087,-0.0087,-0.0087,-0.0087,0,0.07,0.0768,0.0878,0.1017,0.1144,0.1201,0.1381,0.1475,0.1623,0.1717,0.1757,0.1452,0.1143,0.0781,0.0265,-0.0038,-0.0071,-0.0147,-0.0119,-0.0113,-0.0108,-0.0087,-0.0164,-0.0165,-0.0166,-0.0167,0,0,0.073,0.0831,0.0882,0.1081,0.1189,0.1362,0.1467,0.1596,0.1692,0.1777,0.176,0.1705,0.1259,0.0873,0.0448,0.0148,0.0087,0.0078,0.0172,0.0262,0.027,-0.0026,0.0017,0,0,0,0,0]}],[{"header":{"parameterUnit":"m.s-1","parameterCategory":2,"la1":30.2991,"la2":30.254,"lo1":-89.0895,"lo2":-89.0444,"dy":0.0017,"dx":0.0017,"nx":28,"ny":28,"refTime":"2025-11-25T03:00:00:Z","depth":"4","parameterNumber":2,"parameterNumberName":"U-component_of_CURRENTS"},"data":[0,0,0,0,0,0,0,0,0,0,0,0,0,0,0,0,0,0,0,0,0,0,0,0,0,0,0,0,0,0,0,0,0,0,0,0,0,0,0,0,0,0,0,0,0,0,0,0,0,0,0,0,0,0,0,0,0,0,0.1751,0.1752,0,0.1816,0.1816,0.1817,0.1874,0.1875,0.1876,0.1877,0.1959,0.196,0.1961,0,0,0,0,0,0,0,0,0,0,0,0,0,0.1675,0.1676,0.1751,0.1752,0.1753,0.1816,0.1816,0.1817,0.1874,0.1875,0.1876,0.1877,0.1958,0.196,0.1961,0,0,0,0,0,0,0,0,0,0,0,0,0,0.1718,0.1676,0.1751,0.1791,0.1795,0.1815,0.1816,0.1817,0.1874,0.1875,0.1876,0.1878,0.1958,0.196,0.1962,0.1949,0,0,0.1968,0.1969,0,0,0,0,0,0,0,0,0.1716,0.1721,0.1784,0.1788,0.1793,0.184,0.182,0.1863,0.1873,0.1842,0.1877,0.1878,0.1921,0.1926,0.1932,0.1953,0.1956,0.1968,0.1969,0.197,0.1971,0,0,0,0,0,0,0,0.1713,0.1719,0.1775,0.1785,0.179,0.1805,0.1812,0.1828,0.1872,0.1844,0.1849,0.1859,0.1923,0.193,0.1935,0.1957,0.1968,0.197,0.1971,0.1972,0.2091,0.2092,0,0,0,0,0,0,0.1708,0.1716,0.1773,0.1777,0.1759,0.1805,0.1813,0.1822,0.1872,0.1881,0.1858,0.1862,0.1926,0.1932,0.1938,0.203,0.197,0.1972,0.1973,0.2089,0.2091,0.2093,0,0,0,0,0,0,0.1706,0.1712,0.177,0.1749,0.1758,0.1805,0.1814,0.1822,0.1868,0.1882,0.1892,0.19,0.1927,0.1935,0.1989,0.2029,0.1973,0.1975,0.2086,0.2089,0.2092,0.2146,0,0,0,0,0,0,0.1703,0.1711,0.1733,0.1749,0.1759,0.1805,0.1814,0.1823,0.1871,0.1877,0.192,0.1927,0.1929,0.1986,0.1991,0.2031,0.1977,0.2084,0.2088,0.2091,0.2142,0.2151,0.2158,0,0,0,0,0,0.17,0.1718,0.1734,0.1742,0.1782,0.1806,0.1813,0.1849,0.1872,0.1894,0.1931,0.1928,0.2013,0.1989,0.1995,0.2036,0.2082,0.2087,0.2091,0.2138,0.2149,0.2158,0,0,0,0,0,0,0.1698,0.1726,0.1744,0.1771,0.1799,0.1817,0.1847,0.1869,0.1914,0.1935,0.1947,0.1957,0.202,0.2021,0.1995,0.2082,0.2049,0.2054,0.2083,0.2093,0.2101,0.2099,0.1978,0,0,0,0,0,0.1706,0.173,0.1755,0.1782,0.1798,0.183,0.1853,0.1878,0.191,0.1934,0.1965,0.2002,0.2034,0.206,0.2084,0.2128,0.2131,0.2161,0.2169,0.2175,0.2179,0.2223,0.2235,0.2107,0.2107,0.2107,0,0,0.1714,0.1734,0.175,0.1785,0.1811,0.1838,0.1848,0.1892,0.1926,0.1934,0.2004,0.2032,0.2053,0.2106,0.2135,0.2117,0.2214,0.2181,0.2186,0.2187,0.2229,0.2241,0.2252,0.211,0.211,0.2109,0,0,0.1725,0.176,0.178,0.1806,0.1852,0.187,0.1892,0.1933,0.1969,0.2027,0.2047,0.2101,0.2151,0.2174,0.219,0.2257,0.2254,0.2274,0.2314,0.2357,0.2368,0.2377,0.2393,0.2404,0.2279,0.2279,0.2279,0,0.1739,0.1763,0.1791,0.1816,0.1845,0.1889,0.1918,0.1954,0.2014,0.2051,0.2062,0.2161,0.218,0.2243,0.227,0.2274,0.2292,0.2274,0.2367,0.2376,0.2385,0.2399,0.241,0.2282,0.2282,0.2281,0.2281,0,0.1751,0.1788,0.1805,0.1851,0.1885,0.1921,0.1968,0.202,0.2072,0.2111,0.2201,0.2232,0.2293,0.2311,0.2311,0.2389,0.2379,0.237,0.2338,0.2401,0.2412,0.2422,0.2286,0.2285,0.2284,0.2284,0,0,0.1732,0.18,0.1811,0.1841,0.191,0.1934,0.2003,0.207,0.213,0.2198,0.2272,0.2336,0.2373,0.2393,0.2411,0.2447,0.252,0.2442,0.2443,0.2451,0.2608,0.2446,0.2441,0.2535,0.2538,0.254,0.259,0,0.1738,0.1784,0.1822,0.1882,0.1909,0.1976,0.2034,0.2108,0.218,0.2264,0.2322,0.2401,0.2399,0.2444,0.2484,0.2519,0.2551,0.2506,0.2553,0.2554,0.2396,0.2448,0.2547,0.2597,0.26,0.2601,0.2602,0,0.1729,0.1765,0.1818,0.19,0.1921,0.1971,0.2079,0.2141,0.2261,0.2323,0.2415,0.2465,0.255,0.2531,0.2621,0.2599,0.2611,0.2622,0.2624,0.2459,0.241,0.2525,0.262,0.2619,0.2618,0.2616,0.2615,0,0.1682,0.1761,0.1806,0.1833,0.1932,0.1985,0.2051,0.2169,0.2234,0.2376,0.2441,0.2543,0.261,0.2652,0.2687,0.2671,0.2763,0.2739,0.2598,0.2587,0.2693,0.2683,0.2791,0.2791,0.2791,0.279,0.279,0,0.1651,0.1693,0.1796,0.1819,0.189,0.1973,0.2068,0.2154,0.2282,0.2364,0.2477,0.2545,0.265,0.2711,0.272,0.2688,0.2795,0.2608,0.2592,0.2714,0.2706,0.27,0.2688,0.2792,0.2792,0.2791,0.2791,0,0.1588,0.1654,0.1713,0.1827,0.1868,0.1925,0.2065,0.2125,0.2267,0.2377,0.2428,0.2577,0.2657,0.2721,0.2794,0.2714,0.2707,0.2667,0.2794,0.2784,0.2491,0.2483,0.2506,0.2501,0.2496,0.2493,0.2489,0,0.1553,0.158,0.1704,0.1743,0.1802,0.1899,0.1959,0.2105,0.2168,0.2374,0.2407,0.2548,0.2626,0.2589,0.2674,0.2669,0.2637,0.2604,0.2537,0.2482,0.2465,0.2463,0.2461,0.2482,0.2481,0.248,0.2479,0,0.1491,0.1553,0.1601,0.1678,0.1748,0.181,0.1911,0.1939,0.211,0.2258,0.2328,0.237,0.2452,0.2493,0.2506,0.2501,0.2608,0.2557,0.2565,0.2502,0.2454,0.2441,0.2444,0.2464,0.2466,0.2467,0.2468,0,0.1449,0.1464,0.1534,0.1587,0.167,0.1692,0.1758,0.1825,0.19,0.212,0.2144,0.2295,0.2438,0.2407,0.2427,0.2403,0.236,0.2263,0.2286,0.2304,0.2212,0.2119,0.2015,0,0,0,0,0,0.1392,0.1387,0.1434,0.1474,0.1552,0.1598,0.1709,0.1779,0.1942,0.1935,0.2031,0.2099,0.2141,0.2219,0.2151,0.2331,0.2363,0.2241,0.2262,0.2378,0.2396,0.2306,0,0,0,0,0,0,0.1345,0.1381,0.1388,0.1368,0.1383,0.1444,0.151,0.1621,0.162,0.1801,0.1832,0.1971,0.2038,0.2162,0.2115,0.2135,0.2101,0.2336,0.233,0.2368,0.2384,0.2399,0.2312,0,0,0,0,0]},{"header":{"parameterUnit":"m.s-1","parameterCategory":2,"la1":30.2991,"la2":30.254,"lo1":-89.0895,"lo2":-89.0444,"dy":0.0017,"dx":0.0017,"nx":28,"ny":28,"refTime":"2025-11-25T03:00:00:Z","depth":"4","parameterNumber":3,"parameterNumberName":"V-component_of_CURRENTS"},"data":[0,0,0,0,0,0,0,0,0,0,0,0,0,0,0,0,0,0,0,0,0,0,0,0,0,0,0,0,0,0,0,0,0,0,0,0,0,0,0,0,0,0,0,0,0,0,0,0,0,0,0,0,0,0,0,0,0,0,0.0108,0.0108,0,0.0087,0.0087,0.0087,0.0068,0.0068,0.0068,0.0068,0.0022,0.0021,0.0019,0,0,0,0,0,0,0,0,0,0,0,0,0,0.0098,0.0098,0.0108,0.0108,0.0107,0.0087,0.0087,0.0087,0.0068,0.0068,0.0068,0.0068,0.0022,0.0021,0.0019,0,0,0,0,0,0,0,0,0,0,0,0,0,0.0092,0.0099,0.0108,0.0096,0.0095,0.0087,0.0087,0.0087,0.0069,0.0068,0.0068,0.0068,0.0022,0.0021,0.0019,0.0014,0,0,0.0014,0.0013,0,0,0,0,0,0,0,0,0.0092,0.0092,0.0098,0.0097,0.0096,0.0081,0.0067,0.0061,0.0069,0.0078,0.0068,0.0068,0.004,0.0037,0.0033,0.0011,0.0009,0.0014,0.0013,0.0012,0.0012,0,0,0,0,0,0,0,0.0093,0.0093,0.0099,0.0098,0.0097,0.0081,0.008,0.0065,0.0059,0.0077,0.0076,0.0075,0.0039,0.0034,0.0031,0.0009,0.0014,0.0013,0.0012,0.0011,-0.001,-0.001,0,0,0,0,0,0,0.0099,0.0093,0.01,0.0098,0.0094,0.0082,0.008,0.0085,0.006,0.0056,0.0075,0.0074,0.0037,0.0033,0.003,0.0041,0.0012,0.0011,0.001,-0.0011,-0.001,-0.001,0,0,0,0,0,0,0.0099,0.01,0.0101,0.0095,0.0095,0.0082,0.0088,0.0085,0.0084,0.0059,0.0054,0.0077,0.0037,0.0032,0.0024,0.0039,0.001,0.0009,-0.0011,-0.0011,-0.001,0.0052,0,0,0,0,0,0,0.0099,0.01,0.0106,0.0096,0.0095,0.0105,0.0088,0.0085,0.0084,0.0082,0.0059,0.0054,0.0036,0.0027,0.0022,0.0036,0.0007,-0.0012,-0.0011,-0.001,0.0049,0.0055,0.0059,0,0,0,0,0,0.0099,0.0111,0.0106,0.0107,0.0103,0.0105,0.0103,0.0093,0.0084,0.0089,0.0073,0.0055,0.0029,0.0026,0.0021,0.0034,-0.0012,-0.0011,-0.001,0.0047,0.0054,0.0059,0,0,0,0,0,0,0.0108,0.011,0.0104,0.0116,0.0114,0.0103,0.0105,0.0097,0.0089,0.0086,0.0061,0.0055,0.0052,0.0034,0.0031,0.0029,0.0005,0.0005,0.005,0.0056,0.0061,0.0072,0.0006,0,0,0,0,0,0.0113,0.0123,0.0119,0.0127,0.0128,0.0117,0.0116,0.011,0.0101,0.0097,0.0082,0.0064,0.0052,0.0047,0.0031,0.0032,0.0002,0.0036,0.0041,0.0045,0.005,0.0016,0.0018,-0.0007,-0.0007,-0.0007,0,0,0.0118,0.012,0.0125,0.013,0.0126,0.0139,0.0116,0.0119,0.0131,0.0092,0.0101,0.0079,0.0054,0.0056,0.0053,0.0043,0.0036,0.0046,0.005,0.0052,0.0017,0.002,0.0022,-0.0006,-0.0006,-0.0006,0,0,0.0136,0.0136,0.0152,0.0156,0.0157,0.0154,0.0158,0.0152,0.015,0.0153,0.0129,0.0116,0.01,0.0088,0.0078,0.0099,0.0061,0.0095,0.0132,0.01,0.0102,0.0103,0.0069,0.0067,0.0101,0.0101,0.0101,0,0.0142,0.0164,0.0156,0.0174,0.0183,0.0166,0.0188,0.0185,0.0178,0.018,0.0164,0.0139,0.0116,0.0119,0.0126,0.0111,0.0085,0.0114,0.0107,0.0107,0.0107,0.0072,0.0069,0.0104,0.0103,0.0103,0.0103,0,0.0173,0.0193,0.0203,0.0223,0.0232,0.0247,0.0247,0.0251,0.0243,0.0238,0.0234,0.02,0.0187,0.0177,0.0159,0.0156,0.0134,0.0115,0.0094,0.0114,0.0075,0.0071,0.0108,0.0107,0.0106,0.0105,0,0,0.0183,0.0219,0.0224,0.0246,0.0262,0.0274,0.0294,0.0309,0.0327,0.0305,0.0317,0.029,0.0267,0.0255,0.0226,0.0199,0.0175,0.0164,0.0161,0.0134,0.0102,0.0084,0.0076,0.0155,0.0154,0.0154,0.0074,0,0.0212,0.0261,0.0269,0.0318,0.0345,0.0343,0.0369,0.0378,0.0375,0.0381,0.034,0.034,0.0299,0.0295,0.0261,0.0197,0.0166,0.0198,0.0083,0.0079,0.0064,0.0072,0.0152,0.0071,0.007,0.0069,0.0068,0,0.0241,0.0274,0.0328,0.0377,0.0389,0.0415,0.0452,0.0475,0.0476,0.0471,0.0455,0.042,0.0385,0.0341,0.0242,0.0265,0.0191,0.0134,0.0129,0.0088,0.0053,0.0045,0.0059,0.006,0.0061,0.0061,0.0062,0,0.0258,0.0314,0.0362,0.0379,0.043,0.0454,0.0482,0.0503,0.0534,0.0532,0.054,0.0486,0.0464,0.0365,0.0247,0.0245,0.0125,0.0104,0.0016,0.0014,0.0026,0.0025,0.0028,0.0028,0.0029,0.0029,0.0029,0,0.0286,0.0324,0.0377,0.0404,0.0468,0.0492,0.0554,0.0572,0.0602,0.0645,0.0593,0.0595,0.0469,0.0384,0.0265,0.0129,0.0136,0.0023,-0.0006,0.0054,0.0057,0.0022,0.0023,0.0026,0.0026,0.0027,0.0028,0,0.0296,0.033,0.039,0.0453,0.048,0.0527,0.0607,0.0653,0.0676,0.0724,0.0726,0.0676,0.0573,0.043,0.0268,0.0163,0.0026,-0.0028,0.0049,0.0025,-0.007,-0.0066,-0.013,-0.0131,-0.0132,-0.0133,-0.0134,0,0.0305,0.0338,0.0422,0.0466,0.0499,0.0574,0.0632,0.0685,0.0734,0.0773,0.0793,0.0719,0.0662,0.0429,0.0267,0.0038,0.0001,-0.0077,-0.0076,-0.0063,-0.0086,-0.0079,-0.0074,-0.0135,-0.0136,-0.0136,-0.0136,0,0.0321,0.0351,0.0402,0.0493,0.0562,0.0644,0.0725,0.0765,0.0832,0.0848,0.0853,0.0744,0.0624,0.0439,0.026,0.0093,-0.003,-0.0089,-0.0088,-0.0088,-0.0071,-0.0091,-0.0084,-0.014,-0.0139,-0.0139,-0.0139,0,0.0331,0.0365,0.0434,0.0516,0.0607,0.0693,0.0735,0.0799,0.0851,0.0893,0.089,0.0772,0.071,0.0466,0.03,0.0135,0.0088,0.0024,0.0019,0.0021,0.0082,0.0126,0.0095,0,0,0,0,0,0.034,0.0382,0.0453,0.0547,0.0639,0.0696,0.0792,0.0829,0.0887,0.0901,0.0903,0.0795,0.0575,0.048,0.0313,0.0253,0.0038,0.0047,-0.0043,-0.016,-0.0156,-0.0112,0,0,0,0,0,0,0.0345,0.0409,0.0448,0.0562,0.0632,0.0738,0.0803,0.0845,0.0851,0.0883,0.0772,0.0738,0.0519,0.0674,0.0307,0.0257,0.0172,-0.0049,-0.0054,-0.0163,-0.0159,-0.0155,-0.0109,0,0,0,0,0]}]]